Volver al catálogo

STARLINK-33954

ActivoComunicacionesVLEO
NORAD 63863·PAYLOAD·🇺🇸 United States

Lanzado May 7, 2025 desde Cape Canaveral Space Force Station

Loading…

Próximos Pases (próximas 24 horas)

TLE

ActualizadoSource: CelesTrak SupGP

Época: Sep 15, 2026, 02:32 UTC

1 63863C 25093AD  26258.10604167  .00014421  00000+0  52222-3 0  2588
2 63863  43.0003  88.4146 0001807 266.0834 246.8182 15.27577639    18

Sigue STARLINK-33954 en tiempo real con AllMySat

Download on the App Store